Regional Weather Roundup
Issued by NWS Portland, ME

Current Version | Previous Version | Text Only | Print | Product List | Glossary On
Versions: 1 2 3 4 5 6 7 8 9 10 11 12 13 14 15 16 17 18 19 20 21 22 23 24 25 26 27 28 29 30 31 32 33 34 35 36 37 38 39 40 41 42 43 44 45 46 47 48 49 50
000 ASUS41 KGYX 280510 RWRGYX WEATHER ROUNDUP FOR MAINE AND NEW HAMPSHIRE NATIONAL WEATHER SERVICE GRAY ME 100 AM EDT SUN AUG 28 2016 MEZ002-005-006-010-012-015-018-020-021-024-026-027-029-280600- MAINE CITY SKY/WX TMP DP RH WIND PRES REMARKS PORTLAND PTCLDY 66 59 78 CALM 30.28R SANFORD CLOUDY 60 59 96 CALM 30.27S BAR HARBOR CLEAR 57 55 93 CALM 30.29R WISCASSET CLEAR 59 56 89 CALM 30.29R ROCKLAND CLEAR 57 56 96 CALM 30.27S FRYEBURG PTCLDY 60 59 96 CALM 30.28S LEWISTONAUBURN CLEAR 59 58 96 CALM 30.28S AUGUSTA CLEAR 64 59 83 CALM 30.28S WATERVILLE CLEAR 60 57 89 CALM 30.26R BANGOR CLEAR 57 55 93 CALM 30.29R GREENVILLE N/A 60 45 57 SE3 30.29R MILLINOCKET CLEAR 54 52 93 CALM 30.30R HOULTON CLEAR 50 50 100 CALM 30.28R PRESQUE ISLE CLEAR 52 51 97 CALM 30.30R FRENCHVILLE CLEAR 53 46 77 NW6 30.29S CARIBOU CLEAR 55 50 83 CALM 30.29R $$ NHZ002-005-008-009-011-012-014-280600- NEW HAMPSHIRE CITY SKY/WX TMP DP RH WIND PRES REMARKS PORTSMOUTH MOCLDY 66 59 78 E2 30.24S ROCHESTER MOCLDY 64 58 80 CALM 30.26S NASHUA MOCLDY 68 60 75 CALM 30.25S MANCHESTER MOCLDY 72 55 55 SE3 30.23F CONCORD CLEAR 67 57 70 CALM 30.26S LACONIA CLOUDY 63 60 90 CALM 30.27S PLYMOUTH FOG 60 58 96 CALM 30.27S VSB 1 BERLIN CLOUDY 56 53 90 CALM 30.29S WHITEFIELD CLOUDY 58 55 90 CALM 30.28S JAFFREY CLEAR 63 57 81 CALM 30.28S KEENE CLEAR 64 63 96 CALM 30.25R LEBANON CLEAR 63 60 90 CALM 30.25S MT WASHINGTON MOCLDY 49 48 98 S8 N/A $$ VTZ005-007-008-280600- VERMONT CITY SKY/WX TMP DP RH WIND PRES REMARKS ST JOHNSBURY N/A 62 58 86 MISG 30.25S MONTPELIER CLEAR 59 57 93 CALM 30.30F BURLINGTON MOCLDY 70 59 68 CALM 30.22S $$ MAZ007-012-024-CTZ003-RIZ002-NYZ038-NYZ072-280600- SOUTHERN NEW ENGLAND AND NY CITY SKY/WX TMP DP RH WIND PRES REMARKS BOSTON MOCLDY 70 63 78 SE7 30.26R WORCESTER CLEAR 67 58 72 S7 30.27S NANTUCKET CLEAR 62 59 90 CALM 30.26R PROVIDENCE CLEAR 69 66 90 CALM 30.26S HARTFORD CLEAR 70 60 70 SE8 30.23S ALBANY PTCLDY 69 66 90 CALM 30.21S NEW YORK CITY PTCLDY 78 63 59 S6 30.22R $$ ANZ081-ANZ082-ANZ150-NHZ014-MEZ023>029-280600- COASTAL MARINE OBSERVATIONS STATION/POSITION TIME TEMP WIND PRES WAVE AIR SEA DIR/SP/G HT/PER (UTC) (F) (DEG/KT/KT) (MB) (FT/S) MOUNT DESERT ROC 0500 64 340/ 5/ 6 1025.1R MATINICUS ROCK 0500 69 10/ 5/ 5 1024.7R ISLE OF SHOALS 0500 69 100/ 8/ 9 1024.4F JEFFREYS LEDGE 0408 68 N/A 1/ 8 CASHES LEDGE BUO 0450 67 69 350/ 6/ 6 1025.4 1/ 8 GEORGES BANK BUO 0450 67 68 1022.1S 3/ 4 $$ .............KEY.............. WCI - WIND CHILL TC - TEMPERATURE IN CELSIUS VSB - VISIBILITY IN MILES HX - HEAT INDEX FAIR- INDICATES FEW OR NO CLOUDS BELOW 12,000 FT, WITH NO SIGNIFICANT WEATHER AND/OR OBSTRUCTIONS TO VISIBILITY.

USA.gov is the U.S. government's official web portal to all federal, state and local government web resources and services.